This is the latest recevied weather packets stored in our database for station/object DO6MJ-1. If no packets are shown the sender has not sent any weather packets the latest 10 day(s).
| Time | Temp. | Humidity | Pressure | Rain* | Wind** | Luminosity | Snow |
|---|---|---|---|---|---|---|---|
| 1777507275 | 5.56° C | 63% | 1024 hPa | 0 mm | - | - | - |
| 1777506075 | 5.56° C | 63% | 1024 hPa | 0 mm | - | - | - |
| 1777504874 | 5.56° C | 62% | 1024.1 hPa | 0 mm | - | - | - |
| 1777503675 | 6.11° C | 60% | 1024 hPa | 0 mm | - | - | - |
| 1777502474 | 6.67° C | 59% | 1023.7 hPa | 0 mm | - | - | - |
| 1777501273 | 6.67° C | 57% | 1023.7 hPa | 0 mm | - | - | - |
| 1777500075 | 7.22° C | 56% | 1023.4 hPa | 0 mm | - | - | - |
| 1777498873 | 7.22° C | 55% | 1023.3 hPa | 0 mm | - | - | - |
| 1777497673 | 7.78° C | 54% | 1023.2 hPa | 0 mm | - | - | - |
| 1777496475 | 8.33° C | 53% | 1023.2 hPa | 0 mm | - | - | - |
| 1777495272 | 8.89° C | 51% | 1022.9 hPa | 0 mm | - | - | - |
| 1777494072 | 9.44° C | 49% | 1022.9 hPa | 0 mm | - | - | - |
| 1777492871 | 10° C | 46% | 1022.8 hPa | 0 mm | - | - | - |
| 1777491671 | 10.56° C | 45% | 1022.6 hPa | 0 mm | - | - | - |
| 1777490471 | 11.11° C | 44% | 1022.5 hPa | 0 mm | - | - | - |
| 1777489271 | 12.22° C | 42% | 1022.4 hPa | 0 mm | - | - | - |
| 1777488070 | 13.33° C | 40% | 1022.2 hPa | 0 mm | - | - | - |
| 1777486870 | 14.44° C | 38% | 1022 hPa | 0 mm | - | - | - |
| 1777485670 | 15.56° C | 36% | 1021.8 hPa | 0 mm | - | - | - |
| 1777484470 | 16.11° C | 35% | 1021.8 hPa | 0 mm | - | - | - |
| 1777483269 | 16.11° C | 34% | 1021.7 hPa | 0 mm | - | - | - |
| 1777482069 | 16.11° C | 34% | 1021.4 hPa | 0 mm | - | - | - |
| 1777480869 | 16.11° C | 34% | 1021.5 hPa | 0 mm | - | - | - |
| 1777479668 | 15.56° C | 35% | 1021.4 hPa | 0 mm | - | - | - |
| 1777478468 | 16.11° C | 34% | 1021.4 hPa | 0 mm | - | - | - |
* Rain latest hour (hover to see other rain measurements)
** Current wind speed in m/s (hover to see current wind gust speed)